Skip Page Navigation
NASA JPL Caltech
NASA Logo - Jet Propulsion Laboratory + View the NASA Portal
+ Center for Near-Earth Object Studies
JPL Home Earth Solar System Stars & Galaxies Technology
JPL Solar System Dynamics
BODIES ORBITS EPHEMERIDES TOOLS PHYSICAL DATA DISCOVERY FAQ SITE MAP
JPL Small-Body Database Browser
Search: [ help ]  
190487 (2000 EM10)
Classification: Main-belt Asteroid          SPK-ID: 2190487
Ephemeris | Orbit Diagram | Orbital Elements | Mission Design | Physical Parameters | Discovery Circumstances ]

[ show orbit diagram ]
Orbital Elements at Epoch 2459200.5 (2020-Dec-17.0) TDB
Reference: JPL 22 (heliocentric ecliptic J2000)
 Element Value Uncertainty (1-sigma)   Units 
e .0302484942159895 4.4168e-08  
a 2.276268579756392 1.3673e-08 au
q 2.207414882787592 1.023e-07 au
i .3982674802168384 4.1818e-06 deg
node 53.62371160706709 0.00064692 deg
peri 151.4625321911885 0.0006501 deg
M 345.0900933101533 6.478e-05 deg
tp 2459252.452458866087
(2021-Feb-06.95245887)
0.0002258 TDB
period 1254.393175010781
3.43
1.1303e-05
3.095e-08
d
yr
n .2869913573923151 2.5859e-09 deg/d
Q 2.345122276725192 1.4087e-08 au
  Orbit Determination Parameters
   # obs. used (total)      395  
   data-arc span      10341 days (28.31 yr)  
   first obs. used      1991-10-06  
   last obs. used      2020-01-28  
   planetary ephem.      DE431  
   SB-pert. ephem.      SB431-N16  
   condition code      0  
   norm. resid. RMS      .54794  
   source      ORB  
   producer      Otto Matic  
   solution date      2020-Feb-24 21:20:28  

Additional Information
 Earth MOID = 1.20093 au 
 Jupiter MOID = 2.61051 au 
 T_jup = 3.608 
[ show covariance matrix ]

Ephemeris | Orbit Diagram | Orbital Elements | Mission Design | Physical Parameters | Discovery Circumstances ]

Physical Parameter Table
Parameter Symbol Value Units Sigma Reference Notes
absolute magnitude H 16.9   n/a MPO454316  

190487 (2000 EM10)          Discovered 2000-Mar-03 by LINEAR at Socorro
Reference: 20080917/Numbers.arcLast Updated: 2008-09-19

Alternate Designations
 2000 EM10 = 2007 EC76 
Ephemeris | Orbit Diagram | Orbital Elements | Mission Design | Physical Parameters | Discovery Circumstances ]
ABOUT SSD CREDITS/AWARDS PRIVACY/COPYRIGHT GLOSSARY LINKS
FirstGov 2021-Apr-12 07:21 UT
(server date/time)  
NASA Home Page
Site Manager:   Ryan S. Park
Webmaster  Alan B. Chamberlin